Location: Newark
(35.2672°N, 80.7344°W)
Time: 11:14:41
(UTC+00:00)

A-11 Canister half - Pass Details

Date: 29 January 2020
Orbit: 1524 x 1684 km, 47.3° (Epoch: 22 February)

Event Time Altitude Azimuth Distance (km) Brightness Sun altitude
Rises 03:18:57 0° 303° (WNW) 4,734 12.1 -55.2°
Reaches altitude 10° 03:22:02 10° 306° (NW) 3,767 11.4 -55.8°
Enters shadow 03:24:41 21° 310° (NW) 2,975 10.7 -56.3°
